Nottely Lake Weather Center

Moon Phase Calendar



Nottely Lake Water Level
Online Cameras

 


      

Current Conditions in Blairsville
5/8/2021 2:51:22 PM

64°F
Feels Like 62
Clouds
Humidity
45%
Pressure
30.15"
Wind
4.6 mph (NW)
Dew Point
42°F
UV Index
7/10 (High)
Visibility
6 mi

Hourly Forecast

Date & Time Sat, May 8
2:00 PM
Sat, May 8
3:00 PM
Sat, May 8
4:00 PM
Sat, May 8
5:00 PM
Sat, May 8
6:00 PM
Sat, May 8
7:00 PM
Sat, May 8
8:00 PM
Sat, May 8
9:00 PM
Sat, May 8
10:00 PM
Sat, May 8
11:00 PM
Sun, May 9
12:00 AM
Sun, May 9
1:00 AM
Sun, May 9
2:00 AM
Sun, May 9
3:00 AM
Sun, May 9
4:00 AM
Sun, May 9
5:00 AM
Sun, May 9
6:00 AM
Sun, May 9
7:00 AM
Sun, May 9
8:00 AM
Sun, May 9
9:00 AM
Sun, May 9
10:00 AM
Sun, May 9
11:00 AM
Sun, May 9
12:00 PM
Sun, May 9
1:00 PM
Sun, May 9
2:00 PM
Sun, May 9
3:00 PM
Sun, May 9
4:00 PM
Sun, May 9
5:00 PM
Sun, May 9
6:00 PM
Sun, May 9
7:00 PM
Sun, May 9
8:00 PM
Sun, May 9
9:00 PM
Sun, May 9
10:00 PM
Sun, May 9
11:00 PM
Mon, May 10
12:00 AM
Mon, May 10
1:00 AM
Mon, May 10
2:00 AM
Mon, May 10
3:00 AM
Mon, May 10
4:00 AM
Mon, May 10
5:00 AM
Mon, May 10
6:00 AM
Mon, May 10
7:00 AM
Mon, May 10
8:00 AM
Mon, May 10
9:00 AM
Mon, May 10
10:00 AM
Mon, May 10
11:00 AM
Mon, May 10
12:00 PM
Mon, May 10
1:00 PM
Condition
Clouds

Clouds

Clouds

Clouds

Clouds

Clouds

Clouds

Clouds

Clouds

Clouds

Clouds

Clouds

Clouds

Clouds

Clouds

Clouds

Clouds

Clouds

Clouds

Clouds

Clouds

Clouds

Clouds

Clouds

Clouds

Clouds

Clouds

Clouds

Clouds

Clouds

Clouds

Clouds

Clouds

Rain

Rain

Rain

Rain

Clouds

Rain

Rain

Rain

Rain

Clouds

Clouds

Clouds

Rain

Rain

Rain
Temperature 64°F64°F64°F65°F64°F63°F58°F54°F51°F50°F50°F49°F49°F49°F48°F49°F49°F49°F53°F59°F65°F69°F71°F74°F76°F77°F77°F76°F72°F70°F66°F61°F60°F60°F61°F61°F59°F59°F59°F59°F59°F59°F61°F62°F63°F64°F67°F68°F
Feels Like 62°F62°F63°F63°F63°F62°F57°F53°F50°F49°F50°F49°F49°F49°F47°F48°F48°F48°F52°F58°F64°F68°F69°F73°F75°F76°F76°F75°F71°F70°F66°F60°F60°F60°F61°F60°F59°F59°F59°F59°F59°F60°F61°F62°F64°F65°F67°F68°F
Cloudiness 89%90%89%85%84%81%81%94%92%81%65%53%57%100%75%83%87%90%92%100%95%83%88%90%89%85%92%92%94%95%96%83%91%94%96%97%97%100%100%100%100%100%100%100%100%100%97%98%
Visibility 6 mi6 mi6 mi6 mi6 mi6 mi6 mi6 mi6 mi6 mi6 mi6 mi6 mi6 mi6 mi6 mi6 mi6 mi6 mi6 mi6 mi6 mi6 mi6 mi6 mi6 mi6 mi6 mi6 mi6 mi6 mi6 mi6 mi6 mi6 mi6 mi6 mi6 mi6 mi6 mi6 mi6 mi6 mi6 mi6 mi6 mi6 mi6 mi
Precipitation 0%0%0%0%0%0%0%0%0%0%0%0%0%0%0%0%0%0%0%0%0%0%0%0%0%0%0%0%0%0%0%15%20%38%28%56%80%63%93%97%97%94%74%24%29%39%67%90%
Humidity 46%45%45%47%50%57%72%78%84%86%85%85%85%83%84%82%83%84%78%65%52%44%43%38%36%35%38%41%50%56%67%79%80%84%83%88%95%96%97%98%98%99%98%96%93%90%83%80%
Dew Point 42°F42°F43°F44°F45°F48°F48°F47°F46°F45°F45°F44°F44°F43°F43°F43°F43°F44°F46°F47°F46°F46°F47°F47°F47°F47°F49°F51°F52°F53°F54°F53°F54°F54°F55°F56°F57°F57°F58°F58°F57°F58°F59°F60°F60°F61°F61°F61°F
Pressure 30.15"30.15"30.15"30.12"30.09"30.09"30.09"30.09"30.12"30.12"30.12"30.09"30.09"30.09"30.06"30.06"30.09"30.09"30.09"30.06"30.06"30.03"30"29.97"29.97"29.94"29.94"29.91"29.91"29.91"29.91"29.94"29.94"29.97"29.94"29.94"29.94"29.94"29.94"29.94"29.94"29.97"29.97"29.97"29.97"29.97"29.97"29.97"
Wind Speed 8.7 mph9.3 mph9.7 mph10.4 mph8.5 mph6.8 mph3.3 mph1.9 mph1.8 mph1.7 mph2.4 mph2.7 mph2.3 mph3 mph3.3 mph3.2 mph3.3 mph3.7 mph3.4 mph5 mph8.9 mph10.5 mph12.8 mph13.8 mph14.8 mph15.6 mph14.3 mph12.8 mph11 mph9.1 mph5.4 mph3.1 mph2.1 mph2.8 mph2.5 mph5 mph4.3 mph1.7 mph2.5 mph1.2 mph1.9 mph2 mph1.9 mph3.2 mph4.3 mph5 mph7.2 mph7.5 mph
Wind
Direction
283°
WNW
290°
WNW
294°
WNW
290°
WNW
284°
WNW
282°
WNW
275°
W
217°
SW
187°
S
134°
SE
104°
ESE
114°
ESE
127°
SE
126°
SE
123°
ESE
122°
ESE
126°
SE
130°
SE
137°
SE
156°
SSE
181°
S
191°
S
190°
S
201°
SSW
210°
SSW
217°
SW
216°
SW
211°
SSW
202°
SSW
218°
SW
208°
SSW
182°
S
180°
S
190°
S
179°
S
243°
WSW
206°
SSW
198°
SSW
214°
SW
240°
WSW
254°
WSW
269°
W
261°
W
268°
W
275°
W
272°
W
279°
W
285°
WNW

Daily Forecast

Date High Low Precip. Humidity
Today
May 8

Clouds
65 °F
41 °F
0%
50%
Sunday
May 9

Rain
77 °F
48 °F
38%
38%
Monday
May 10

Rain
69 °F
56 °F
97%
77%
Tuesday
May 11

Rain
72 °F
51 °F
29%
44%
Wednesday
May 12

Rain
56 °F
51 °F
96%
60%
Thursday
May 13

Rain
52 °F
45 °F
96%
79%
Friday
May 14

Rain
64 °F
45 °F
59%
44%
Saturday
May 15

Clear
70 °F
40 °F
0%
31%
Sunday
May 16

Clear
76 °F
46 °F
0%
36%
Monday
May 17

Clear
80 °F
52 °F
0%
41%
Tuesday
May 18

Clouds
83 °F
58 °F
0%
40%
Wednesday
May 19

Rain
81 °F
61 °F
100%
46%
Thursday
May 20

Rain
78 °F
58 °F
100%
45%
Friday
May 21

Clouds
76 °F
55 °F
0%
46%
Saturday
May 22

Clouds
79 °F
56 °F
16%
50%
Sunday
May 23

Rain
79 °F
60 °F
84%
56%

Temperature 8-14 Day Outlook



Precipitation 8-14 Day Outlook




Quick Links
Nottely Lake News
Nottely Lake Photos
Nottely Lake Videos




About Us
Contact Us
Site Map
Search Site
Advertise With Us
   
Nottely.USLakes.info
THE NOTTELY LAKE WEBSITE

Copyright 2021, Lakes Online
Privacy    |    Legal